Regional Weather Roundup
Issued by NWS

Home | Current Version | Previous Version | Graphics & Text | Print | Product List | Glossary On
Versions: 1 2 3 4 5 6 7 8 9 10 11 12 13 14 15 16 17 18 19 20 21 22 23 24 25 26 27 28 29 30 31 32 33 34 35 36 37 38 39 40 41 42 43 44 45 46 47 48 49 50
594
ASUS44 KJAN 252010
RWRMS

MISSISSIPPI HOURLY WEATHER ROUNDUP
NATIONAL WEATHER SERVICE JACKSON MS
300 PM CDT SAT OCT 25 2014

NOTE: "FAIR: INDICATES FEW OR NO CLOUDS BELOW 12,000 FEET WITH NO
SIGNIFICANT WEATHER AND/OR OBSTRUCTIONS TO VISIBILITY.

MSZ001>002-007>008-010>013-018>021-025>028-034>036-252100-
NORTHWEST MISSISSIPPI

CITY           SKY/WX    TMP DP  RH WIND       PRES   REMARKS
CLARKSDALE     FAIR      81  63  54 SW8       30.05F
CLEVELAND      FAIR      81  65  57 SW6       30.05S
GREENWOOD      SUNNY     81  61  50 VRB7      30.06F
GREENVILLE     SUNNY     82  61  48 W9        30.05F
GRENADA          N/A    N/A N/A N/A MISG        N/A
OLIVE BRANCH   MOSUNNY   81  64  57 SW8       30.03F
OXFORD         FAIR      77  61  57 W6        30.06F
TUNICA         CLEAR     81  63  54 SW9       30.04S
$$

MSZ003>006-009-014>017-022>024-029>033-037>039-252100-
NORTHEAST MISSISSIPPI

CITY           SKY/WX    TMP DP  RH WIND       PRES   REMARKS
COLUMBUS AFB   SUNNY     80  60  49 VRB3      30.05F
CORINTH          N/A     81  63  54 NW6       30.02F
GOLDN TRIANGLE MOSUNNY   81  59  47 CALM      30.05F
STARKVILLE     FAIR      79  61  53 W6        30.05F
TUPELO         SUNNY     81  61  50 NW5       30.04F
$$

MSZ040-058-252100-
CENTRAL MISSISSIPPI

CITY           SKY/WX    TMP DP  RH WIND       PRES   REMARKS
JACKSON INTL   SUNNY     82  60  47 VRB5      30.08F
JACKSON HAWKNS SUNNY     79  60  52 NW7       30.08F
MERIDIAN KEY   SUNNY     79  58  48 NW7       30.06F
MERIDIAN NAS   SUNNY     80  58  46 W10       30.06F
RAYMOND        FAIR      81  75  83 NW5       30.08F
VICKSBURG      SUNNY     81  59  47 VRB6      30.08F
$$

MSZ059>079-252100-
SOUTH MISSISSIPPI

CITY           SKY/WX    TMP DP  RH WIND       PRES   REMARKS
BROOKHAVEN     FAIR      79  61  53 N8        30.11F
COLUMBIA       FAIR      79  57  47 MISG        N/A
HATTIESBURG    SUNNY     80  57  45 N6        30.08F
MCCOMB         SUNNY     80  53  39 NW10      30.09F
NATCHEZ        SUNNY     79  57  47 W7        30.11F
PINE BELT      SUNNY     81  57  44 N8        30.10F
$$

MSZ080>082-252100-
COASTAL MISSISSIPPI

CITY           SKY/WX    TMP DP  RH WIND       PRES   REMARKS
BAY ST LOUIS   SUNNY     81  52  36 N6        30.07F
BILOXI         SUNNY     80  54  40 N9        30.06F
PASCAGOULA     SUNNY     80  55  42 VRB7      30.06F
GULFPORT       SUNNY     80  53  39 N10       30.06F
$$



USA.gov is the U.S. government's official web portal to all federal, state and local government web resources and services.